Location: Amherst
(42.3800°N, 72.5240°W)
Time: 10:25:09
(UTC-04:00)

ISS - Pass Details

Date: 25 May 2021
Orbit: 417 x 422 km, 51.6° (Epoch: 14 June)

Event Time Altitude Azimuth Distance (km) Brightness Sun altitude
Rises 22:25:43 0° 307° (NW) 2,367 1.4 -18.6°
Reaches altitude 10° 22:27:59 10° 318° (NW) 1,503 0.3 -18.8°
Maximum altitude 22:31:01 30° 22° (NNE) 783 -2.1 -19.1°
Enters shadow 22:32:21 22° 63° (ENE) 966 -2.0 -19.3°
